{"data":{"norad_id":61072,"epoch":"2026-09-20T21:08:11.887296Z","epoch_age_seconds":261712,"freshness":"STALE","line1":"1 61072U 24165B   26263.88069314  .00001979  00000+0  12252-3 0  9992","line2":"2 61072  64.0742  87.3074 0061035 301.7753  57.7425 15.11711115111121","mean_motion":15.11711115,"eccentricity":0.0061035,"inclination_deg":64.0742,"raan_deg":87.3074,"arg_perigee_deg":301.7753,"mean_anomaly_deg":57.7425,"bstar":0.00012252,"rev_number":11112,"period_min":95.256295049468,"perigee_km":488.81162720179,"apogee_km":573.15123589571,"semimajor_km":6909.1184315488,"source":"CELESTRAK","updated_at":"2026-09-23T09:00:20.808645Z"}}